Olathe, KS

7:13 AM CDT on September 22, 2017 (GMT -0500)
Johnson County Executive

Weather History for KOJC - August, 2012

Change the Weather History Date:

Monday, August 27, 2012

  Actual Average Record
Temperature  
Mean Temperature 81 °F 76 °F  
Max Temperature 94 °F 86 °F 102 °F (1983)
Min Temperature 67 °F 66 °F 50 °F (1967)
Degree Days  
Heating Degree Days 0 0  
Month to date heating degree days 0 0  
Since 1 June heating degree days 8 8  
Since 1 July heating degree days 0 0  
Cooling Degree Days 16 11  
Month to date cooling degree days 334 353  
Year to date cooling degree days 1599 1125  
Since 1 June cooling degree days 1339 1021  
Growing Degree Days 28 (Base 50)    
Moisture  
Dew Point 60 °F    
Average Humidity 61    
Maximum Humidity 100    
Minimum Humidity 22    
Precipitation  
Precipitation 0.00 in 0.15 in 3.95 in (2006)
Month to date precipitation 0.52 3.16  
Year to date precipitation 14.13 27.40  
Sea Level Pressure  
Sea Level Pressure 30.07 in    
Wind  
Wind Speed 7 mph (NE)    
Max Wind Speed 14 mph    
Max Gust Speed 18 mph    
Visibility 10 miles    
Events      
T = Trace of Precipitation, MM = Missing Value Source: NWS Daily Summary

Daily Weather History Graph

Daily Weather History Graph

Search for Another Location

Airport or City:

Trip Planner

Search our weather history database for the weather conditions in past years. The results will help you decide how hot, cold, wet, or windy it might be!

Date:

Astronomy

Aug. 27, 2012 Rise Set
Actual Time 6:43 AM CDT 7:56 PM CDT
Civil Twilight 6:16 AM CDT 8:23 PM CDT
Nautical Twilight 5:43 AM CDT 8:56 PM CDT
Astronomical Twilight 5:08 AM CDT 9:30 PM CDT
Moon 5:14 PM CDT (8/27) 2:30 AM CDT (8/27)
Length of Visible Light 14h 07m
Length of Day
13h 12m
Waxing Gibbous, 83% of the Moon is Illuminated
Aug 27
Waxing Gibbous
Aug 31
Full
Sep 8
Last Quarter
Sep 15
New
Sep 22
First Quarter

Hourly Weather History & Observations

Time (CDT) Temp. Heat Index Dew Point Humidity Pressure Visibility Wind Dir Wind Speed Gust Speed Precip Events Conditions
12:53 AM 72.0 °F - 68.0 °F 87% 30.02 in 10.0 mi NNW 4.6 mph - N/A   Clear
1:53 AM 72.0 °F - 68.0 °F 87% 30.02 in 10.0 mi NNW 4.6 mph - N/A   Clear
2:53 AM 69.1 °F - 66.9 °F 93% 30.03 in 10.0 mi Calm Calm - N/A   Clear
3:53 AM 70.0 °F - 68.0 °F 93% 30.03 in 10.0 mi North 5.8 mph - N/A   Clear
4:53 AM 69.1 °F - 66.9 °F 93% 30.04 in 10.0 mi North 4.6 mph - N/A   Clear
5:53 AM 66.9 °F - 66.0 °F 97% 30.06 in 9.0 mi North 3.5 mph - N/A   Clear
6:53 AM 68.0 °F - 66.9 °F 96% 30.09 in 7.0 mi North 3.5 mph - N/A   Clear
7:53 AM 70.0 °F - 66.9 °F 90% 30.11 in 6.0 mi North 5.8 mph - N/A   Clear
8:53 AM 73.0 °F - 69.1 °F 87% 30.12 in 10.0 mi NE 5.8 mph - N/A   Clear
9:53 AM 78.1 °F - 66.9 °F 68% 30.12 in 10.0 mi NE 12.7 mph - N/A   Clear
10:53 AM 80.1 °F 82.3 °F 66.9 °F 64% 30.13 in 10.0 mi East 9.2 mph - N/A   Clear
12:53 PM 86.0 °F 87.3 °F 64.0 °F 48% 30.11 in 10.0 mi NE 11.5 mph - N/A   Clear
1:53 PM 89.1 °F 89.3 °F 62.1 °F 40% 30.09 in 10.0 mi NNE 10.4 mph 16.1 mph N/A   Clear
2:53 PM 91.0 °F 89.7 °F 57.0 °F 32% 30.08 in 10.0 mi NE 11.5 mph 16.1 mph N/A   Clear
3:53 PM 91.9 °F 89.5 °F 54.0 °F 27% 30.06 in 10.0 mi ENE 10.4 mph 16.1 mph N/A   Clear
4:53 PM 91.0 °F 88.5 °F 53.1 °F 27% 30.05 in 10.0 mi East 10.4 mph - N/A   Clear
5:53 PM 90.0 °F - 48.0 °F 24% 30.05 in 10.0 mi ENE 11.5 mph - N/A   Clear
6:53 PM 88.0 °F - 45.0 °F 22% 30.04 in 10.0 mi East 10.4 mph - N/A   Clear
7:53 PM 84.0 °F - 48.0 °F 28% 30.04 in 10.0 mi East 3.5 mph - N/A   Clear
8:53 PM 80.1 °F - 50.0 °F 35% 30.06 in 10.0 mi East 4.6 mph - N/A   Clear
9:53 PM 79.0 °F - 52.0 °F 39% 30.07 in 10.0 mi NE 4.6 mph - N/A   Clear
10:53 PM 73.9 °F - 53.1 °F 48% 30.09 in 10.0 mi ENE 3.5 mph - N/A   Clear
11:53 PM 73.0 °F - 54.0 °F 51% 30.09 in 10.0 mi Calm Calm - N/A   Clear